{"data":{"norad_id":49409,"intl_designator":"2021-104B","name":"STARLINK-3075","alt_names":[],"object_type":"PAYLOAD","status":"ACTIVE","operator":null,"country":"US","launch_date":"2021-11-13","launch_site_code":"AFETR","launch_vehicle":null,"mission":null,"orbit_class":"UNKNOWN","rcs_meters":null,"size_class":null,"mass_kg":null,"dimensions":null,"purposes":["comms"],"wikipedia_slug":null,"has_3d_model":false,"image_url":null,"decayed_at":null,"tle_current":{"epoch":"2026-05-24T16:53:50.897184Z","epoch_age_seconds":93776,"freshness":"FRESH","line1":"1 49409U 21104B   26144.70406131 -.00007795  00000+0 -47297-3 0  9994","line2":"2 49409  53.2156 247.8801 0001188  63.0940 297.0173 15.08779964250114","mean_motion":15.08779964,"eccentricity":0.0001188,"inclination_deg":53.2156,"raan_deg":247.8801,"arg_perigee_deg":63.094,"mean_anomaly_deg":297.0173,"bstar":-0.00047297,"rev_number":25011,"period_min":95.441352242135,"perigee_km":539.10503509178,"apogee_km":540.74876707468,"semimajor_km":6918.0639010832,"source":"CELESTRAK","updated_at":"2026-05-25T13:38:16.794275Z"}}}